Location: Moydans
(44.3997°N, 5.5038°E)
Time: 17:34:40
(UTC+02:00)

X-37B - Visible Passes

Search period start: 20 September 2021 00:00
Search period end: 30 September 2021 00:00
Orbit: 381 x 393 km, 45.0° (Epoch: 29 August)

Date Brightness Start Highest point End Pass type
(mag) Time Alt. Az. Time Alt. Az. Time Alt. Az.
21 Sep 2.7 06:18:25 10° SSW 06:20:52 21° SSE 06:23:21 10° E visible
22 Sep 3.3 05:22:47 13° SE 05:22:47 13° SE 05:24:11 10° ESE visible
22 Sep 1.2 06:55:46 10° WSW 06:58:51 53° SSE 07:01:58 10° E visible
23 Sep 1.8 05:59:30 26° SSW 06:00:34 34° SSE 06:03:28 10° E visible
24 Sep 3.4 05:03:52 15° ESE 05:03:52 15° ESE 05:04:49 10° E visible
24 Sep 0.6 06:36:10 15° WSW 06:38:40 76° SSE 06:41:50 10° E visible
25 Sep 1.0 05:40:29 52° SSE 05:40:29 52° SSE 05:43:25 10° E visible
26 Sep 4.0 04:44:46 11° E 04:44:46 11° E 04:44:56 10° E visible
26 Sep 0.5 06:17:04 29° W 06:18:32 85° N 06:21:42 10° E visible
27 Sep 2.2 05:21:20 34° E 05:21:20 34° E 05:23:18 10° E visible
27 Sep 0.6 06:53:39 10° W 06:56:49 79° N 06:59:59 10° E visible
28 Sep 0.5 05:57:54 58° WNW 05:58:24 77° N 06:01:35 10° E visible
29 Sep 3.4 05:02:12 18° E 05:02:12 18° E 05:03:10 10° E visible
29 Sep 0.5 06:34:29 18° W 06:36:42 89° SSW 06:39:51 10° E visible
